| time (UTC) | temp F | wind direction | speed MPH | gust MPH | rain 1hr in | rain 24hr in | rain mn in | humidity % | barometer mb |
| 20260505235058 | 52 | 333 | 6.0 | 10.0 | 0.00 | 0.00 | 0.00 | 72 | 1013.7 |
| 20260505234617 | 52 | 346 | 3.0 | 6.0 | 0.00 | 0.00 | 0.00 | 73 | 1013.7 |
| 20260505234058 | 52 | 27 | 4.0 | 6.0 | 0.00 | 0.00 | 0.00 | 73 | 1013.6 |
| 20260505233558 | 52 | 46 | 1.0 | 4.0 | 0.00 | 0.00 | 0.00 | 74 | 1013.7 |
| 20260505233100 | 52 | 360 | 1.0 | 3.0 | 0.00 | 0.00 | 0.00 | 74 | 1013.7 |
| 20260505232557 | 52 | 15 | 0.0 | 7.0 | 0.00 | 0.00 | 0.00 | 73 | 1013.7 |
| 20260505232058 | 52 | 0 | 1.0 | 7.0 | 0.00 | 0.00 | 0.00 | 73 | 1013.7 |
| 20260505231601 | 52 | 360 | 1.0 | 6.0 | 0.00 | 0.00 | 0.00 | 74 | 1013.7 |
| 20260505231058 | 52 | 15 | 2.0 | 6.0 | 0.00 | 0.00 | 0.00 | 73 | 1013.7 |
| 20260505230558 | 52 | 345 | 2.0 | 6.0 | 0.00 | 0.00 | 0.00 | 73 | 1013.7 |
| 20260505225600 | 52 | 346 | 1.0 | 4.0 | 0.00 | 0.00 | 0.00 | 74 | 1013.9 |
| 20260505225058 | 52 | 352 | 1.0 | 3.0 | 0.00 | 0.00 | 0.00 | 75 | 1014.0 |
| 20260505224611 | 52 | 340 | 1.0 | 3.0 | 0.00 | 0.00 | 0.00 | 74 | 1013.9 |
| 20260505224102 | 52 | 352 | 1.0 | 3.0 | 0.00 | 0.00 | 0.00 | 74 | 1013.9 |
| 20260505223558 | 52 | 352 | 1.0 | 3.0 | 0.00 | 0.00 | 0.00 | 74 | 1014.0 |
| 20260505223108 | 52 | 350 | 1.0 | 4.0 | 0.00 | 0.00 | 0.00 | 73 | 1013.9 |
| 20260505222557 | 52 | 333 | 1.0 | 4.0 | 0.00 | 0.00 | 0.00 | 73 | 1013.9 |
| 20260505222057 | 52 | 349 | 2.0 | 4.0 | 0.00 | 0.00 | 0.00 | 73 | 1013.9 |
| 20260505221603 | 52 | 0 | 1.0 | 6.0 | 0.00 | 0.00 | 0.00 | 72 | 1014.0 |
| 20260505221059 | 52 | 352 | 2.0 | 7.0 | 0.00 | 0.00 | 0.00 | 72 | 1013.9 |
| 20260505220558 | 53 | 350 | 3.0 | 8.0 | 0.00 | 0.00 | 0.00 | 72 | 1013.8 |
| 20260505220107 | 53 | 352 | 2.0 | 8.0 | 0.00 | 0.00 | 0.00 | 71 | 1013.9 |
| 20260505215600 | 53 | 329 | 3.0 | 8.0 | 0.00 | 0.00 | 0.00 | 71 | 1013.9 |
| 20260505215058 | 53 | 347 | 3.0 | 8.0 | 0.00 | 0.00 | 0.00 | 71 | 1013.9 |
| 20260505214612 | 53 | 30 | 4.0 | 8.0 | 0.00 | 0.00 | 0.00 | 71 | 1013.8 |
| 20260505214058 | 53 | 330 | 5.0 | 8.0 | 0.00 | 0.00 | 0.00 | 72 | 1013.9 |
| 20260505213600 | 53 | 348 | 3.0 | 8.0 | 0.00 | 0.00 | 0.00 | 71 | 1014.0 |
| 20260505213058 | 53 | 346 | 4.0 | 10.0 | 0.00 | 0.00 | 0.00 | 72 | 1014.0 |
| 20260505212557 | 52 | 333 | 4.0 | 10.0 | 0.00 | 0.00 | 0.00 | 71 | 1013.9 |
| 20260505212057 | 52 | 338 | 4.0 | 9.0 | 0.00 | 0.00 | 0.00 | 72 | 1014.0 |
| 20260505211641 | 52 | 340 | 4.0 | 9.0 | 0.00 | 0.00 | 0.00 | 72 | 1014.0 |
| 20260505211101 | 52 | 348 | 3.0 | 9.0 | 0.00 | 0.00 | 0.00 | 73 | 1013.9 |
| 20260505210558 | 52 | 26 | 3.0 | 9.0 | 0.00 | 0.00 | 0.00 | 73 | 1014.0 |
| 20260505210059 | 52 | 340 | 3.0 | 6.0 | 0.00 | 0.00 | 0.00 | 73 | 1013.9 |
| 20260505205558 | 52 | 332 | 2.0 | 6.0 | 0.00 | 0.00 | 0.00 | 72 | 1014.0 |
| 20260505205058 | 52 | 333 | 2.0 | 6.0 | 0.00 | 0.00 | 0.00 | 72 | 1014.0 |
| 20260505204605 | 52 | 333 | 1.0 | 5.0 | 0.00 | 0.00 | 0.00 | 72 | 1013.9 |
| 20260505204058 | 52 | 335 | 2.0 | 5.0 | 0.00 | 0.00 | 0.00 | 72 | 1013.9 |
| 20260505203558 | 52 | 350 | 2.0 | 6.0 | 0.00 | 0.00 | 0.00 | 71 | 1013.9 |
| 20260505203100 | 52 | 352 | 2.0 | 6.0 | 0.00 | 0.00 | 0.00 | 71 | 1014.0 |
| 20260505202601 | 52 | 338 | 3.0 | 8.0 | 0.00 | 0.00 | 0.00 | 71 | 1014.0 |
| 20260505202058 | 52 | 345 | 3.0 | 8.0 | 0.00 | 0.00 | 0.00 | 70 | 1013.8 |
| 20260505201559 | 52 | 343 | 3.0 | 8.0 | 0.00 | 0.00 | 0.00 | 70 | 1013.8 |
| 20260505201058 | 52 | 323 | 3.0 | 8.0 | 0.00 | 0.00 | 0.00 | 69 | 1013.8 |
| 20260505200558 | 52 | 352 | 2.0 | 9.0 | 0.00 | 0.00 | 0.00 | 69 | 1013.9 |
| 20260505200058 | 52 | 13 | 3.0 | 9.0 | 0.00 | 0.00 | 0.00 | 68 | 1013.8 |
| 20260505195558 | 53 | 331 | 3.0 | 8.0 | 0.00 | 0.00 | 0.00 | 67 | 1013.7 |
| 20260505195057 | 53 | 340 | 3.0 | 8.0 | 0.00 | 0.00 | 0.00 | 67 | 1013.5 |
| 20260505194600 | 53 | 352 | 4.0 | 8.0 | 0.00 | 0.00 | 0.00 | 66 | 1013.6 |
| 20260505194057 | 53 | 313 | 3.0 | 8.0 | 0.00 | 0.00 | 0.00 | 66 | 1013.5 |
| 20260505193558 | 54 | 352 | 2.0 | 8.0 | 0.00 | 0.00 | 0.00 | 65 | 1013.5 |
| 20260505193057 | 54 | 24 | 4.0 | 9.0 | 0.00 | 0.00 | 0.00 | 65 | 1013.4 |
| 20260505192600 | 54 | 15 | 3.0 | 9.0 | 0.00 | 0.00 | 0.00 | 64 | 1013.2 |
| 20260505192058 | 54 | 322 | 3.0 | 9.0 | 0.00 | 0.00 | 0.00 | 64 | 1013.2 |
| 20260505191605 | 55 | 337 | 5.0 | 11.0 | 0.00 | 0.00 | 0.00 | 64 | 1013.2 |
| 20260505191058 | 55 | 336 | 4.0 | 11.0 | 0.00 | 0.00 | 0.00 | 64 | 1013.2 |
| 20260505190601 | 55 | 13 | 5.0 | 11.0 | 0.00 | 0.00 | 0.00 | 64 | 1013.2 |
| 20260505190114 | 56 | 360 | 3.0 | 11.0 | 0.00 | 0.00 | 0.00 | 63 | 1013.2 |
| 20260505185558 | 56 | 352 | 4.0 | 11.0 | 0.00 | 0.00 | 0.00 | 62 | 1013.1 |
| 20260505185058 | 56 | 352 | 6.0 | 11.0 | 0.00 | 0.00 | 0.00 | 61 | 1013.1 |
| 20260505184559 | 56 | 19 | 5.0 | 11.0 | 0.00 | 0.00 | 0.00 | 61 | 1013.1 |
| 20260505184058 | 57 | 360 | 5.0 | 9.0 | 0.00 | 0.00 | 0.00 | 61 | 1013.2 |
| 20260505183557 | 57 | 311 | 3.0 | 8.0 | 0.00 | 0.00 | 0.00 | 61 | 1013.0 |
| 20260505183100 | 57 | 350 | 4.0 | 8.0 | 0.00 | 0.00 | 0.00 | 61 | 1013.1 |
| 20260505182558 | 57 | 343 | 4.0 | 8.0 | 0.00 | 0.00 | 0.00 | 60 | 1013.0 |
| 20260505182057 | 57 | 337 | 3.0 | 9.0 | 0.00 | 0.00 | 0.00 | 60 | 1013.1 |
| 20260505181642 | 57 | 340 | 2.0 | 9.0 | 0.00 | 0.00 | 0.00 | 59 | 1013.0 |
| 20260505181057 | 57 | 341 | 3.0 | 9.0 | 0.00 | 0.00 | 0.00 | 59 | 1013.0 |
| 20260505180645 | 57 | 340 | 4.0 | 8.0 | 0.00 | 0.00 | 0.00 | 59 | 1013.0 |
| 20260505180106 | 58 | 55 | 2.0 | 7.0 | 0.00 | 0.00 | 0.00 | 59 | 1013.1 |
| 20260505175558 | 58 | 336 | 3.0 | 9.0 | 0.00 | 0.00 | 0.00 | 59 | 1013.1 |
| 20260505175058 | 58 | 360 | 2.0 | 10.0 | 0.00 | 0.00 | 0.00 | 60 | 1013.0 |
| 20260505174558 | 58 | 5 | 4.0 | 10.0 | 0.00 | 0.00 | 0.00 | 58 | 1013.2 |
| 20260505174058 | 58 | 10 | 3.0 | 8.0 | 0.00 | 0.00 | 0.00 | 59 | 1013.3 |
| 20260505173558 | 58 | 5 | 3.0 | 10.0 | 0.00 | 0.00 | 0.00 | 58 | 1013.2 |
| 20260505173100 | 58 | 13 | 3.0 | 13.0 | 0.00 | 0.00 | 0.00 | 59 | 1013.2 |
| 20260505172557 | 58 | 32 | 7.0 | 13.0 | 0.00 | 0.00 | 0.00 | 59 | 1013.3 |
| 20260505172057 | 58 | 360 | 4.0 | 11.0 | 0.00 | 0.00 | 0.00 | 58 | 1013.3 |
| 20260505171604 | 58 | 360 | 4.0 | 10.0 | 0.00 | 0.00 | 0.00 | 58 | 1013.3 |
| 20260505171057 | 58 | 352 | 5.0 | 13.0 | 0.00 | 0.00 | 0.00 | 58 | 1013.3 |
| 20260505170558 | 58 | 41 | 3.0 | 13.0 | 0.00 | 0.00 | 0.00 | 58 | 1013.4 |
| 20260505170100 | 58 | 12 | 6.0 | 13.0 | 0.00 | 0.00 | 0.00 | 57 | 1013.4 |
| 20260505165559 | 58 | 20 | 5.0 | 13.0 | 0.00 | 0.00 | 0.00 | 57 | 1013.4 |
| 20260505165059 | 58 | 350 | 6.0 | 13.0 | 0.00 | 0.00 | 0.00 | 58 | 1013.4 |
| 20260505164600 | 59 | 328 | 5.0 | 13.0 | 0.00 | 0.00 | 0.00 | 59 | 1013.4 |
| 20260505164059 | 59 | 5 | 7.0 | 13.0 | 0.00 | 0.00 | 0.00 | 59 | 1013.4 |
| 20260505163601 | 59 | 334 | 5.0 | 10.0 | 0.00 | 0.00 | 0.00 | 59 | 1013.4 |
| 20260505163058 | 59 | 338 | 5.0 | 10.0 | 0.00 | 0.00 | 0.00 | 59 | 1013.4 |
| 20260505162558 | 60 | 338 | 5.0 | 10.0 | 0.00 | 0.00 | 0.00 | 57 | 1013.3 |
| 20260505162100 | 60 | 52 | 2.0 | 13.0 | 0.00 | 0.00 | 0.00 | 56 | 1013.3 |
| 20260505161559 | 60 | 12 | 6.0 | 13.0 | 0.00 | 0.00 | 0.00 | 54 | 1013.3 |
| 20260505161059 | 60 | 346 | 6.0 | 13.0 | 0.00 | 0.00 | 0.00 | 54 | 1013.3 |
| 20260505160559 | 60 | 29 | 6.0 | 11.0 | 0.00 | 0.00 | 0.00 | 53 | 1013.3 |
| 20260505153059 | 60 | 278 | 7.0 | 13.0 | 0.00 | 0.00 | 0.00 | 52 | 1013.4 |
| 20260505152558 | 61 | 343 | 6.0 | 12.0 | 0.00 | 0.00 | 0.00 | 56 | 1013.4 |
| 20260505152058 | 61 | 360 | 5.0 | 12.0 | 0.00 | 0.00 | 0.00 | 55 | 1013.5 |
| 20260505151605 | 61 | 333 | 5.0 | 13.0 | 0.00 | 0.00 | 0.00 | 54 | 1013.3 |
| 20260505151101 | 61 | 346 | 5.0 | 13.0 | 0.00 | 0.00 | 0.00 | 53 | 1013.4 |
| 20260505150558 | 61 | 24 | 6.0 | 12.0 | 0.00 | 0.00 | 0.00 | 53 | 1013.4 |
| 20260505140558 | 62 | 335 | 5.0 | 11.0 | 0.00 | 0.00 | 0.00 | 52 | 1013.5 |
| 20260505140110 | 62 | 327 | 3.0 | 11.0 | 0.00 | 0.00 | 0.00 | 54 | 1013.5 |
| 20260505130110 | 63 | 352 | 5.0 | 10.0 | 0.00 | 0.00 | 0.00 | 53 | 1013.4 |
| 20260505124624 | 62 | 64 | 3.0 | 11.0 | 0.00 | 0.00 | 0.00 | 54 | 1013.6 |
| 20260505124058 | 62 | 326 | 6.0 | 11.0 | 0.00 | 0.00 | 0.00 | 52 | 1013.7 |
| 20260505123558 | 62 | 54 | 3.0 | 12.0 | 0.00 | 0.00 | 0.00 | 54 | 1013.6 |
| 20260505123117 | 63 | 57 | 6.0 | 12.0 | 0.00 | 0.00 | 0.00 | 53 | 1013.7 |
| 20260505122558 | 63 | 324 | 3.0 | 12.0 | 0.00 | 0.00 | 0.00 | 56 | 1013.8 |
| 20260505122059 | 63 | 315 | 3.0 | 13.0 | 0.00 | 0.00 | 0.00 | 53 | 1013.7 |
| 20260505121604 | 63 | 334 | 6.0 | 13.0 | 0.00 | 0.00 | 0.00 | 55 | 1013.7 |
| 20260505121059 | 63 | 320 | 5.0 | 13.0 | 0.00 | 0.00 | 0.00 | 53 | 1013.7 |
| 20260505120557 | 63 | 27 | 6.0 | 13.0 | 0.00 | 0.00 | 0.00 | 57 | 1013.7 |
| 20260505120124 | 63 | 360 | 5.0 | 13.0 | 0.00 | 0.00 | 0.00 | 54 | 1013.8 |
| 20260505115559 | 63 | 342 | 5.0 | 14.0 | 0.00 | 0.00 | 0.00 | 56 | 1013.7 |
| 20260505115059 | 63 | 11 | 8.0 | 14.0 | 0.00 | 0.00 | 0.00 | 53 | 1013.8 |
| 20260505114559 | 63 | 316 | 6.0 | 13.0 | 0.00 | 0.00 | 0.00 | 53 | 1013.9 |
| 20260505114059 | 62 | 327 | 3.0 | 15.0 | 0.00 | 0.00 | 0.00 | 55 | 1013.9 |
| 20260505113603 | 62 | 79 | 7.0 | 15.0 | 0.00 | 0.00 | 0.00 | 54 | 1013.9 |
| 20260505113104 | 62 | 302 | 7.0 | 12.0 | 0.00 | 0.00 | 0.00 | 56 | 1014.0 |
| 20260505112559 | 61 | 329 | 4.0 | 12.0 | 0.00 | 0.00 | 0.00 | 58 | 1014.0 |
| 20260505112059 | 60 | 5 | 5.0 | 12.0 | 0.00 | 0.00 | 0.00 | 59 | 1014.0 |
| 20260505111602 | 60 | 330 | 5.0 | 11.0 | 0.00 | 0.00 | 0.00 | 57 | 1014.2 |
| 20260505111059 | 60 | 5 | 3.0 | 11.0 | 0.00 | 0.00 | 0.00 | 57 | 1014.1 |
| 20260505110559 | 60 | 337 | 2.0 | 11.0 | 0.00 | 0.00 | 0.00 | 56 | 1014.3 |
| 20260505110112 | 60 | 34 | 6.0 | 14.0 | 0.00 | 0.00 | 0.00 | 58 | 1014.2 |
| 20260505102059 | 60 | 344 | 6.0 | 15.0 | 0.00 | 0.00 | 0.00 | 61 | 1014.4 |
| 20260505101603 | 60 | 5 | 8.0 | 15.0 | 0.00 | 0.00 | 0.00 | 59 | 1014.4 |
| 20260505101059 | 60 | 338 | 6.0 | 13.0 | 0.00 | 0.00 | 0.00 | 57 | 1014.4 |
| 20260505100559 | 60 | 42 | 6.0 | 13.0 | 0.00 | 0.00 | 0.00 | 59 | 1014.4 |
| 20260505100101 | 60 | 340 | 3.0 | 9.0 | 0.00 | 0.00 | 0.00 | 62 | 1014.2 |
| 20260505095558 | 60 | 121 | 3.0 | 10.0 | 0.00 | 0.03 | 0.00 | 58 | 1014.4 |
| 20260505095100 | 60 | 352 | 2.0 | 10.0 | 0.00 | 0.03 | 0.00 | 60 | 1014.5 |
| 20260505094559 | 60 | 5 | 4.0 | 13.0 | 0.00 | 0.03 | 0.00 | 60 | 1014.5 |
| 20260505094059 | 59 | 129 | 4.0 | 15.0 | 0.00 | 0.03 | 0.00 | 58 | 1014.5 |
| 20260505093559 | 60 | 42 | 6.0 | 17.0 | 0.00 | 0.03 | 0.00 | 60 | 1014.5 |
| 20260505093058 | 59 | 352 | 6.0 | 17.0 | 0.00 | 0.03 | 0.00 | 60 | 1014.5 |
| 20260505092600 | 60 | 346 | 8.0 | 17.0 | 0.00 | 0.03 | 0.00 | 60 | 1014.6 |
| 20260505092100 | 60 | 322 | 3.0 | 9.0 | 0.00 | 0.03 | 0.00 | 62 | 1014.5 |
| 20260505091600 | 59 | 65 | 4.0 | 10.0 | 0.00 | 0.03 | 0.00 | 62 | 1014.6 |
| 20260505091100 | 59 | 0 | 1.0 | 15.0 | 0.00 | 0.03 | 0.00 | 65 | 1014.5 |
| 20260505090559 | 58 | 9 | 1.0 | 15.0 | 0.00 | 0.03 | 0.00 | 65 | 1014.6 |
| 20260505090059 | 58 | 15 | 7.0 | 15.0 | 0.00 | 0.03 | 0.00 | 62 | 1014.7 |
| 20260505085559 | 58 | 306 | 6.0 | 12.0 | 0.00 | 0.03 | 0.00 | 65 | 1014.5 |
| 20260505085059 | 58 | 22 | 4.0 | 11.0 | 0.00 | 0.03 | 0.00 | 63 | 1014.6 |
| 20260505084605 | 58 | 325 | 2.0 | 11.0 | 0.00 | 0.03 | 0.00 | 64 | 1014.5 |
| 20260505084057 | 58 | 18 | 1.0 | 10.0 | 0.00 | 0.03 | 0.00 | 66 | 1014.6 |
| 20260505083557 | 57 | 52 | 4.0 | 10.0 | 0.00 | 0.03 | 0.00 | 68 | 1014.6 |
| 20260505083115 | 57 | 318 | 3.0 | 10.0 | 0.00 | 0.03 | 0.00 | 68 | 1014.6 |
| 20260505082605 | 56 | 340 | 3.0 | 10.0 | 0.00 | 0.03 | 0.00 | 68 | 1014.5 |
| 20260505082058 | 55 | 5 | 2.0 | 6.0 | 0.00 | 0.03 | 0.00 | 70 | 1014.5 |
| 20260505081608 | 54 | 341 | 2.0 | 5.0 | 0.00 | 0.03 | 0.00 | 71 | 1014.6 |
| 20260505081058 | 54 | 0 | 1.0 | 3.0 | 0.00 | 0.03 | 0.00 | 72 | 1014.6 |
| 20260505080557 | 53 | 88 | 0.0 | 4.0 | 0.00 | 0.03 | 0.00 | 75 | 1014.6 |
| 20260505080114 | 53 | 190 | 0.0 | 4.0 | 0.00 | 0.03 | 0.00 | 74 | 1014.6 |
| 20260505075557 | 53 | 16 | 1.0 | 10.0 | 0.00 | 0.03 | 0.00 | 74 | 1014.7 |
| 20260505075100 | 54 | 292 | 4.0 | 11.0 | 0.00 | 0.03 | 0.00 | 74 | 1014.6 |
| 20260505074558 | 54 | 302 | 3.0 | 11.0 | 0.00 | 0.03 | 0.00 | 73 | 1014.7 |
| 20260505074058 | 54 | 328 | 5.0 | 10.0 | 0.00 | 0.03 | 0.00 | 75 | 1014.6 |
| 20260505073559 | 54 | 26 | 4.0 | 10.0 | 0.00 | 0.03 | 0.00 | 75 | 1014.7 |
| 20260505073104 | 54 | 322 | 4.0 | 10.0 | 0.00 | 0.03 | 0.00 | 75 | 1014.7 |
| 20260505072557 | 53 | 352 | 3.0 | 8.0 | 0.00 | 0.03 | 0.00 | 78 | 1014.7 |
| 20260505072058 | 52 | 352 | 3.0 | 8.0 | 0.00 | 0.03 | 0.00 | 78 | 1014.6 |
| 20260505071606 | 52 | 323 | 2.0 | 6.0 | 0.00 | 0.03 | 0.00 | 80 | 1014.8 |
| 20260505071058 | 51 | 301 | 2.0 | 6.0 | 0.00 | 0.03 | 0.00 | 79 | 1014.7 |
| 20260505070558 | 51 | 19 | 3.0 | 6.0 | 0.00 | 0.03 | 0.00 | 80 | 1014.8 |
| 20260505070107 | 51 | 350 | 1.0 | 4.0 | 0.00 | 0.03 | 0.00 | 80 | 1014.9 |
| 20260505065558 | 51 | 316 | 2.0 | 4.0 | 0.00 | 0.03 | 0.00 | 79 | 1014.9 |
| 20260505065058 | 51 | 352 | 1.0 | 4.0 | 0.00 | 0.03 | 0.00 | 80 | 1014.9 |
| 20260505064702 | 51 | 286 | 0.0 | 4.0 | 0.00 | 0.03 | 0.00 | 81 | 1014.8 |
| 20260505064058 | 51 | 340 | 1.0 | 4.0 | 0.00 | 0.03 | 0.00 | 81 | 1014.6 |
| 20260505063558 | 51 | 26 | 1.0 | 8.0 | 0.00 | 0.03 | 0.00 | 81 | 1014.6 |
| 20260505063101 | 51 | 103 | 2.0 | 12.0 | 0.00 | 0.03 | 0.00 | 81 | 1014.5 |
| 20260505062558 | 51 | 61 | 0.0 | 12.0 | 0.00 | 0.03 | 0.00 | 81 | 1014.6 |
| 20260505062058 | 51 | 90 | 3.0 | 12.0 | 0.00 | 0.03 | 0.00 | 80 | 1014.5 |
| 20260505061600 | 51 | 277 | 1.0 | 8.0 | 0.00 | 0.03 | 0.00 | 84 | 1014.5 |
| 20260505061058 | 51 | 90 | 3.0 | 8.0 | 0.00 | 0.03 | 0.00 | 84 | 1014.3 |
| 20260505060606 | 51 | 127 | 0.0 | 3.0 | 0.00 | 0.03 | 0.00 | 85 | 1014.3 |
| 20260505060058 | 51 | 0 | 0.0 | 4.0 | 0.00 | 0.03 | 0.00 | 85 | 1014.4 |
| 20260505055558 | 51 | 0 | 1.0 | 6.0 | 0.00 | 0.03 | 0.00 | 85 | 1014.5 |
| 20260505055101 | 51 | 82 | 2.0 | 6.0 | 0.00 | 0.03 | 0.00 | 85 | 1014.5 |
| 20260505054558 | 50 | 98 | 2.0 | 7.0 | 0.00 | 0.03 | 0.00 | 85 | 1014.5 |
| 20260505054058 | 50 | 30 | 1.0 | 7.0 | 0.00 | 0.03 | 0.00 | 87 | 1014.4 |
| 20260505053558 | 50 | 71 | 0.0 | 7.0 | 0.00 | 0.03 | 0.00 | 87 | 1014.5 |
| 20260505053100 | 50 | 143 | 1.0 | 7.0 | 0.00 | 0.03 | 0.00 | 88 | 1014.3 |
| 20260505052559 | 50 | 330 | 1.0 | 5.0 | 0.00 | 0.03 | 0.00 | 88 | 1014.4 |
| 20260505052059 | 50 | 352 | 2.0 | 5.0 | 0.00 | 0.03 | 0.00 | 88 | 1014.4 |
| 20260505051558 | 50 | 0 | 0.0 | 3.0 | 0.00 | 0.03 | 0.00 | 88 | 1014.5 |
| 20260505051059 | 50 | 217 | 0.0 | 5.0 | 0.00 | 0.03 | 0.00 | 87 | 1014.6 |
| 20260505050559 | 50 | 166 | 0.0 | 7.0 | 0.00 | 0.03 | 0.00 | 87 | 1014.5 |
| 20260505050110 | 50 | 66 | 2.0 | 7.0 | 0.00 | 0.03 | 0.00 | 87 | 1014.5 |
| 20260505041607 | 49 | 328 | 1.0 | 4.0 | 0.00 | 0.03 | 0.00 | 89 | 1014.5 |
| 20260505041057 | 49 | 0 | 1.0 | 4.0 | 0.00 | 0.03 | 0.00 | 88 | 1014.5 |
| 20260505040557 | 49 | 360 | 1.0 | 4.0 | 0.00 | 0.03 | 0.00 | 88 | 1014.5 |
| 20260505040106 | 49 | 13 | 1.0 | 5.0 | 0.00 | 0.03 | 0.00 | 88 | 1014.4 |
| 20260505035601 | 49 | 352 | 2.0 | 5.0 | 0.00 | 0.03 | 0.00 | 88 | 1014.4 |
| 20260505035057 | 49 | 352 | 0.0 | 7.0 | 0.00 | 0.03 | 0.00 | 88 | 1014.3 |
| 20260505034613 | 49 | 352 | 2.0 | 7.0 | 0.00 | 0.03 | 0.00 | 88 | 1014.2 |
| 20260505034058 | 49 | 59 | 3.0 | 7.0 | 0.00 | 0.03 | 0.00 | 88 | 1014.3 |
| 20260505033557 | 49 | 28 | 1.0 | 8.0 | 0.00 | 0.03 | 0.00 | 88 | 1014.4 |
| 20260505033108 | 49 | 69 | 3.0 | 8.0 | 0.00 | 0.03 | 0.00 | 88 | 1014.4 |
| 20260505032557 | 49 | 48 | 3.0 | 7.0 | 0.00 | 0.03 | 0.00 | 89 | 1014.3 |
| 20260505032056 | 48 | 47 | 1.0 | 4.0 | 0.00 | 0.03 | 0.00 | 90 | 1014.2 |
| 20260505031607 | 48 | 352 | 1.0 | 5.0 | 0.00 | 0.03 | 0.00 | 91 | 1014.4 |
| 20260505031056 | 48 | 0 | 2.0 | 5.0 | 0.00 | 0.03 | 0.00 | 91 | 1014.3 |
| 20260505030600 | 48 | 18 | 1.0 | 2.0 | 0.00 | 0.03 | 0.00 | 90 | 1014.4 |
| 20260505030119 | 48 | 40 | 0.0 | 3.0 | 0.00 | 0.03 | 0.00 | 90 | 1014.3 |
| 20260505025558 | 48 | 40 | 1.0 | 3.0 | 0.00 | 0.03 | 0.00 | 90 | 1014.3 |
| 20260505025058 | 48 | 0 | 1.0 | 3.0 | 0.00 | 0.03 | 0.00 | 90 | 1014.4 |
| 20260505024612 | 48 | 53 | 1.0 | 3.0 | 0.00 | 0.03 | 0.00 | 90 | 1014.5 |
| 20260505024057 | 49 | 10 | 1.0 | 4.0 | 0.00 | 0.03 | 0.00 | 90 | 1014.5 |
| 20260505023558 | 49 | 51 | 1.0 | 4.0 | 0.00 | 0.03 | 0.00 | 91 | 1014.5 |
| 20260505023057 | 49 | 26 | 2.0 | 3.0 | 0.00 | 0.03 | 0.00 | 90 | 1014.6 |
| 20260505022601 | 49 | 28 | 1.0 | 3.0 | 0.00 | 0.03 | 0.00 | 91 | 1014.5 |
| 20260505022058 | 49 | 0 | 1.0 | 4.0 | 0.00 | 0.03 | 0.00 | 91 | 1014.7 |
| 20260505021557 | 49 | 11 | 2.0 | 4.0 | 0.00 | 0.03 | 0.00 | 91 | 1014.6 |
| 20260505021057 | 49 | 37 | 2.0 | 4.0 | 0.00 | 0.03 | 0.00 | 90 | 1014.7 |
| 20260505020558 | 49 | 54 | 1.0 | 3.0 | 0.00 | 0.03 | 0.00 | 90 | 1014.8 |
| 20260505020107 | 49 | 60 | 2.0 | 3.0 | 0.00 | 0.03 | 0.00 | 90 | 1014.8 |
| 20260505015557 | 49 | 52 | 2.0 | 3.0 | 0.00 | 0.03 | 0.00 | 90 | 1014.7 |
| 20260505015100 | 49 | 53 | 2.0 | 4.0 | 0.00 | 0.03 | 0.00 | 90 | 1014.7 |
| 20260505014556 | 49 | 59 | 1.0 | 4.0 | 0.00 | 0.03 | 0.00 | 90 | 1014.7 |
| 20260505014056 | 50 | 63 | 2.0 | 4.0 | 0.00 | 0.03 | 0.00 | 90 | 1014.8 |
| 20260505013557 | 50 | 55 | 2.0 | 4.0 | 0.00 | 0.03 | 0.00 | 90 | 1014.9 |
| 20260505013058 | 50 | 46 | 1.0 | 4.0 | 0.00 | 0.03 | 0.00 | 89 | 1014.7 |
| 20260505012600 | 50 | 42 | 2.0 | 3.0 | 0.00 | 0.03 | 0.00 | 89 | 1014.7 |
| 20260505012057 | 50 | 58 | 1.0 | 3.0 | 0.00 | 0.03 | 0.00 | 90 | 1014.7 |
| 20260505011601 | 50 | 43 | 1.0 | 4.0 | 0.00 | 0.03 | 0.00 | 90 | 1014.8 |
| 20260505011058 | 50 | 42 | 2.0 | 4.0 | 0.00 | 0.03 | 0.00 | 90 | 1014.8 |
| 20260505010558 | 50 | 40 | 2.0 | 4.0 | 0.00 | 0.03 | 0.00 | 90 | 1014.8 |
| 20260505010110 | 50 | 42 | 2.0 | 3.0 | 0.00 | 0.03 | 0.00 | 90 | 1014.9 |
| 20260505005559 | 50 | 49 | 1.0 | 3.0 | 0.00 | 0.03 | 0.00 | 89 | 1015.0 |
| 20260505005059 | 50 | 49 | 1.0 | 2.0 | 0.00 | 0.03 | 0.00 | 89 | 1014.9 |
| 20260505004631 | 50 | 49 | 1.0 | 3.0 | 0.00 | 0.03 | 0.00 | 89 | 1014.9 |
| 20260505004057 | 50 | 49 | 1.0 | 3.0 | 0.00 | 0.03 | 0.00 | 89 | 1014.9 |
| 20260505003558 | 51 | 44 | 1.0 | 3.0 | 0.00 | 0.03 | 0.00 | 88 | 1015.0 |
| 20260505003101 | 51 | 44 | 1.0 | 2.0 | 0.00 | 0.03 | 0.00 | 88 | 1015.1 |
| 20260505002600 | 51 | 9 | 0.0 | 2.0 | 0.00 | 0.03 | 0.00 | 87 | 1015.0 |
| 20260505002059 | 52 | 9 | 0.0 | 1.0 | 0.00 | 0.03 | 0.00 | 87 | 1015.0 |
| 20260505001558 | 52 | 0 | 0.0 | 2.0 | 0.00 | 0.03 | 0.00 | 86 | 1015.0 |
| 20260505001058 | 52 | 9 | 0.0 | 2.0 | 0.00 | 0.03 | 0.00 | 87 | 1015.1 |
| 20260505000558 | 53 | 0 | 0.0 | 3.0 | 0.00 | 0.03 | 0.00 | 86 | 1014.9 |
| 20260505000113 | 53 | 42 | 0.0 | 5.0 | 0.00 | 0.03 | 0.00 | 87 | 1015.1 |
| 20260504235557 | 53 | 41 | 1.0 | 5.0 | 0.00 | 0.03 | 0.00 | 87 | 1015.0 |